Погода в Буденновске

Погода в Буденновске : погода сейчас, прогноз погоды и архив. Всё, что Вы хотите узнать о погоде в Буденновске!

Хотите узнать прогноз погоды в Буденновске? Тогда Вам сюда: Погода в Буденновске

Поиск расширенной информации на нашем сайте:

Полезная информация:

Другие новости

Новости СМИ2

Главная страница сайта

Новости сайта

03.07.2017

Напоминаем, что на нашем специализированном сайте Метеоцентр.Азия вы можете получить высокодетализированные автоматические прогнозы погоды по пунктам России, СНГ и мира в авиационном формате (включающие направление и скорость ветра, видимость, явления погоды, количество и форму облачности, нижнюю и верхнюю границу облачности).

Рекомендуем:

Погода в Буденновске - сегодня

Время (UTC), дата Ветер
(°,м/с) 
Видим.   Явления Облачность Т
(°С)
Тd
(°С)
f(%) Тe
(°С)
Pmin
(гПа)
dP
(гПа)
Po
(мм)
O2
(г/м3)
Тmin Tmax R s Состояние
почвы
12 15.07.19 070 (В) 6-11{15}  10 км  пыльный позёмок  6/3 1000 м средняя, верхняя 
[Cu hum|Ac trans|Ci fib]
+30.1 +8.3 26 +30  1002.9  -2  741  268           
15 15.07.19 080 (В) 5{15}  10 км    6/4 600 м средняя, верхняя 
[Sc|Ac trans|Ci fib]
+27.1 +10.7 36 +29  1003.5  0.4  741  270    +30.5       
18 15.07.19 080 (В) 3{11}  20000 м    10/10 600 м 
[Sc]
+23.4 +13.8 55 +30  1005.6  0.4  743  273           
21 15.07.19 тихо ()   10 км  слаб. ливневой дождь  10/10 600 м кучево-дожд. 
[Cb calv]
+19.8 +16.6 82 +32  1007.1  1.3  744  276           
00 16.07.19 210 (ЮЗ) 3{11}  10 км  в посл. час ливневой дождь  10/10 600 м кучево-дожд. 
[Cb calv]
+18.5 +16 85 +30  1005.8  -1.4  743  277           
03 16.07.19 320 (СЗ) 10 км    9/9 600 м 
[Sc]
+19.2 +17.1 88 +33  1006  0.2  743  276  +18.2      влажная 
06 16.07.19 030 (СВ) 10 км    3/3 600 м 
[Cu hum]
+23.7 +16.6 64 +36  1005.8  0.1  743  272           
09 16.07.19 070 (В) 10 км    9/5 600 м верхняя 
[Cu hum|Ci fib]
+27.1 +14.9 47 +36  1005.3  -0.3  743  269           
12 16.07.19 020 (С) 10 км    3/1 600 м верхняя 
[Cu hum|Ci fib]
+29.8 +12.5 35 +35  1004  -1.2  742  267           
15 16.07.19 310 (СЗ) 10 км    8/1 600 м средняя, верхняя 
[Sc|Ac trans|Ci fib]
+29.8 +10.9 31 +32  1004.3  0.3  742  268    +31.1       
18 16.07.19 320 (СЗ) 4{12}  20000 м    8/1 600 м средняя, верхняя 
[Sc|Ac trans|Ci fib]
+22.2 +15.5 66 +32  1007.5  2.8  744  274           
21 16.07.19 300 (СЗ) 20000 м    3/0 средняя 
[Ac trans]
+20.7 +15.6 73 +31  1008.8  1.1  745  276           
00 17.07.19 310 (СЗ) 20000 м    3/3 600 м 
[Sc]
+19.5 +14.3 72 +29  1009.2  0.3  745  277           
03 17.07.19 240 (ЮЗ) 10 км    9/8 600 м средняя 
[Sc|Ac trans]
+19 +14.5 75 +28  1010.2  746  278  +18        сухая 
06 17.07.19 230 (ЮЗ) 10 км    8/5 1000 м средняя 
[Cu hum|Ac trans]
+23.9 +13.7 53 +31  1009.8  -0.2  746  274           
09 17.07.19 340 (С) 10 км    4/1 600 м верхняя 
[Cu hum|Ci fib]
+28.2 +11.9 36 +32  1007.7  -1.8  744  270           
12 17.07.19 220 (ЮЗ) 10 км    9/6 1000 м средняя, верхняя 
[Sc diur, vesp|Ac trans|Ci fib]
+30.8 +8.8 25 +31  1006.5  -1.1  744  268           
15 17.07.19 010 (С) 10 км    9/8 600 м средняя 
[Sc|Ac trans]
+29.7 +9.4 28 +30  1006.2  -0.3  743  269    +30.9       
18 17.07.19 180 (Ю) 20000 м    10/10 600 м 
[Sc]
+26.6 +12.7 42 +32  1007  0.7  744  271           
21 17.07.19 тихо ()   20000 м    10/10 1000 м 
[Sc]
+24.4 +13.9 52 +31  1006.7  -0.4  744  272           
00 18.07.19 080 (В) 20000 м    8/0 средняя, верхняя 
[Ac trans|Ci fib]
+22.8 +12.6 53 +28  1006.4  -0.4  743  274           
03 18.07.19 070 (В) 10 км    8/4 600 м средняя 
[Sc|Ac trans]
+22.2 +13.2 57 +28  1007.1  0.7  744  275  +21.9        сухая 
06 18.07.19 070 (В) 4-10{10}  10 км    9/9 600 м 
[Sc]
+27.2 +12.4 40 +32  1006.3  -0.6  743  270           
09 18.07.19 060 (СВ) 5-10{11}  10 км    8/8 1000 м средняя 
[Cu hum|Ac trans]
+32.1 +10.8 27 +35  1005.1  -0.9  743  266           
12 18.07.19 060 (СВ) 3{11}  10 км    10/10 600 м 
[Sc]
+31.5 +10.1 27 +33  1005.3  0.1  743  267           
Время (UTC), дата Ветер
(°,м/с) 
Видим.   Явления Облачность Т
(°С)
Тd
(°С)
f(%) Тe
(°С)
Pmin
(гПа)
dP
(гПа)
Po
(мм)
O2
(г/м3)
Тmin Tmax R s Состояние
почвы

Для получения пояснительной информации подведите курсор к названию столбца.

ПОГОДА в Буденновске - архив

Всё, что Вы хотите узнать о погоде в Буденновске - удобно и подробно!

Выберите нужную дату (начиная с 1 января 2018* года) и нажмите кнопку "Найти".
Будут отображены архивные сводки погоды по пункту Буденновск, начиная с указанной даты.


Отображать данные в формате CSV (для использования в таблицах Excel)


Внимание! Наш архив погоды предназначен исключительно для личного некоммерческого использования в познавательных целях. Если Вам необходимы официальные справки о состоянии погоды (для производственных, юридических, коммерческих и т.п. целей), обращайтесь в органы Росгидромета.

*Примечание: данная дата относится к архиву по метеостанциям СССР (Россия, СНГ, Балтия).
Архив по метеостанциям Зарубежной Европы и Азии (кроме Китая) хранится 10 дней, по другим регионам земного шара (Китай, Африка, Америка, Австралия, Океания) - 1 день.

Буденновск - район местоположения метеостанции


Название, широта, долгота, высота метеостанции:
Буденновск (Прикумск) 44.8°ш. 44.1°д. 136 м над ур. моря [Российская Федерация]

Дополнительная информация

В oтличие oт бoльшинства пoгoдных сайтoв мы публикуем пoдрoбную метеoинфoрмацию в детальнoм прoфессиoнальнoм фoрмате.

Характеристики температуры и влажнoсти вoздуха измеряются на высoте 2 м в тени вдали oт зданий и деревьев.
Скoрoсть ветра измеряется на высoте 10 м (на урoвне рoста челoвека скoрoсть ветра ниже в 1.5-2 раза). Если метеoстанция нахoдится в гoрoде или в лесу, тo скoрoсть ветра занижена на 2-4 м/с пo сравнению с oткрытым местoм. Скoрoсть ветра над акватoриями крупных рек и oзёр, а также на вершинах хoлмoв на 2-5 м/с выше, чем в oбычных услoвиях.
Атмoсфернoе давление в разных тoчках местнoсти мoжет значительнo oтличаться oт давления на метеoстанции, в зависимoсти oт услoвий рельефа (при пoдъёме на 10 м давление пoнижается примернo на 1 мм рт.ст.).